Home   Weather   Skopje   Past weeks
Flag for North Macedonia

Past Weather in Skopje, North Macedonia — Yesterday and Last 2 Weeks

Now
50 °F

Clear.


Feels Like: 50 °F
Forecast: 77 / 51 °F
Wind: No wind

Location: Skopje-Petrovec

Current Time: Oct 19, 2019 at 6:39:37 am

Latest Report: Oct 19, 2019 at 5:30 am


Visibility: 10 mi

Pressure: 30.09 "Hg

Humidity: 94%

Dew Point: 48 °F

Location of SkopjeLocation

Past Weather in Skopje — Graph

°F

Skopje Temperature Yesterday

Maximum temperature yesterday: 79 °F (at 3:00 pm)
Minimum temperature yesterday: 45 °F (at 6:00 am)
Average temperature yesterday: 63 °F

High & Low Weather Summary for the Past Weeks

 TemperatureHumidityPressure
High84 °F (Oct 14, 4:30 pm)100% (Oct 9, 6:30 am)30.33 "Hg (Oct 9, 6:30 am)
Low37 °F (Oct 9, 6:30 am)26% (Oct 14, 5:00 pm)29.80 "Hg (Oct 5, 1:30 pm)
Average60 °F64%30.08 "Hg
* Reported Oct 4 5:00 am — Oct 19 5:30 am, Skopje. Weather by CustomWeather, © 2019

Note: Actual official high and low records may vary slightly from our data, if they occured in-between our weather recording intervals... More about our weather records

Advertising

Skopje Weather History for the Previous 24 Hours

Scroll right to see more
 ConditionsComfort  
Time TempWeatherWind HumidityBarometerVisibility
5:30 am
Sat, Oct 19
50 °FClear.No wind94%30.09 "Hg10 mi
4:30 am52 °FClear.No wind94%30.09 "Hg10 mi
4:00 am52 °FClear.No wind94%30.09 "Hg10 mi
3:30 am52 °FClear.No wind94%30.09 "Hg10 mi
3:00 am52 °FClear.No wind94%30.09 "Hg10 mi
2:30 am54 °FClear.No wind82%30.09 "Hg10 mi
2:00 am54 °FClear.No wind82%30.09 "Hg10 mi
1:30 am55 °FClear.No wind82%30.07 "Hg10 mi
1:00 am55 °FClear.No wind82%30.07 "Hg10 mi
12:00 am57 °FPassing clouds.No wind77%30.07 "HgN/A
11:30 pm
Fri, Oct 18
59 °FPassing clouds.No wind72%30.07 "HgN/A
10:00 pm61 °FClear.7 mph68%30.07 "Hg10 mi
9:30 pm63 °FClear.No wind68%30.07 "Hg10 mi
9:00 pm63 °FClear.No wind68%30.07 "Hg10 mi
8:30 pm63 °FClear.No wind68%30.04 "Hg10 mi
8:00 pm64 °FClear.No wind60%30.04 "Hg10 mi
7:30 pm68 °FClear.No wind56%30.04 "Hg10 mi
7:00 pm70 °FClear.5 mph50%30.04 "Hg10 mi
6:30 pm70 °FClear.2 mph50%30.01 "Hg10 mi
6:00 pm73 °FClear.5 mph44%30.01 "Hg10 mi
5:30 pm75 °FSunny.5 mph41%30.01 "Hg10 mi
5:00 pm77 °FSunny.5 mph39%30.01 "Hg10 mi
4:30 pm79 °FSunny.5 mph34%30.01 "Hg10 mi
4:00 pm79 °FSunny.2 mph37%30.01 "Hg10 mi
3:30 pm79 °FSunny.2 mph37%30.01 "Hg10 mi
3:00 pm79 °FClear.No wind37%30.01 "HgN/A
2:30 pm77 °FSunny.2 mph39%30.01 "Hg10 mi
2:00 pm77 °FSunny.2 mph39%30.04 "Hg10 mi
1:30 pm75 °FSunny.2 mph41%30.04 "Hg10 mi
1:00 pm73 °FSunny.1 mph47%30.07 "Hg10 mi
12:00 pm72 °FSunny.1 mph47%30.09 "Hg10 mi
11:30 am68 °FSunny.1 mph53%30.09 "Hg10 mi
11:00 am66 °FSunny.1 mph52%30.12 "Hg10 mi
10:30 am64 °FSunny.2 mph56%30.12 "Hg10 mi
10:00 am61 °FSunny.1 mph63%30.12 "Hg10 mi
9:30 am59 °FSunny.No wind68%30.15 "Hg10 mi
9:00 am57 °FSunny.No wind67%30.12 "Hg10 mi
8:30 am52 °FSunny.No wind82%30.15 "Hg10 mi
8:00 am48 °FSunny.No wind87%30.12 "Hg10 mi
7:30 am46 °FSunny.No wind93%30.12 "Hg10 mi
7:00 am48 °FSunny.No wind87%30.12 "Hg10 mi
6:30 am46 °FClear.No wind93%30.12 "Hg10 mi
6:00 am45 °FClear.1 mph93%30.12 "Hg10 mi
Weather by CustomWeather, © 2019

See weather overview